Chrysoupoli Airport, Greece

5:22 PM EEST on September 27, 2016 (GMT +0300)
Megas Alexandros

Weather History for LGKV - March, 2013

Change the Weather History Date:

Tuesday, March 5, 2013

  Actual Average Record
Temperature  
Mean Temperature 45 °F -  
Max Temperature 51 °F 53 °F 64 °F (2008)
Min Temperature 39 °F 39 °F 33 °F (2004)
Degree Days  
Heating Degree Days 20    
Moisture  
Dew Point 37 °F    
Average Humidity 72    
Maximum Humidity 93    
Minimum Humidity 54    
Precipitation  
Precipitation 0.00 in - - ()
Sea Level Pressure  
Sea Level Pressure 30.41 in    
Wind  
Wind Speed 8 mph ()    
Max Wind Speed 16 mph    
Max Gust Speed -    
Visibility 6.2 miles    
Events      
Averages and records for this station are not official NWS values.
T = Trace of Precipitation, MM = Missing Value Source: Averaged Metar Reports

Daily Weather History Graph

Daily Weather History Graph

Search for Another Location

Airport or City:

Trip Planner

Search our weather history database for the weather conditions in past years. The results will help you decide how hot, cold, wet, or windy it might be!

Date:

Astronomy

Mar. 05, 2013 Rise Set
Actual Time 6:49 AM EET 6:17 PM EET
Civil Twilight 6:22 AM EET 6:44 PM EET
Nautical Twilight 5:50 AM EET 7:16 PM EET
Astronomical Twilight 5:18 AM EET 7:48 PM EET
Moon 1:44 AM EET (3/5) 11:35 AM EET (3/5)
Length of Visible Light 12h 22m
Length of Day
11h 27m
Last Quarter, 44% of the Moon is Illuminated
Mar 5
Last Quarter
Mar 11
New
Mar 19
First Quarter
Mar 27
Full
Apr 3
Last Quarter

Hourly Weather History & Observations

Time (EET) Temp. Windchill Dew Point Humidity Pressure Visibility Wind Dir Wind Speed Gust Speed Precip Events Conditions
12:50 AM 42.8 °F 40.1 °F 39.2 °F 87% 30.21 in 6.2 mi NE 4.6 mph - N/A   Partly Cloudy
2:50 AM 39.2 °F 34.2 °F 37.4 °F 93% 30.27 in 6.2 mi NE 6.9 mph - N/A   Partly Cloudy
3:50 AM 39.2 °F 35.0 °F 37.4 °F 93% 30.27 in 6.2 mi ENE 5.8 mph - N/A   Partly Cloudy
4:50 AM 39.2 °F 35.0 °F 35.6 °F 87% 30.30 in 6.2 mi NNE 5.8 mph - N/A   Partly Cloudy
5:20 AM 39.2 °F 34.2 °F 37.4 °F 93% 30.33 in 6.2 mi NE 6.9 mph - N/A   Partly Cloudy
5:50 AM 39.2 °F 33.6 °F 37.4 °F 93% 30.33 in 6.2 mi NE 8.1 mph - N/A   Scattered Clouds
6:20 AM 39.2 °F 34.2 °F 37.4 °F 93% 30.33 in 6.2 mi NE 6.9 mph - N/A   Partly Cloudy
6:50 AM 39.2 °F 35.0 °F 35.6 °F 87% 30.36 in 6.2 mi NE 5.8 mph - N/A   Partly Cloudy
7:20 AM 39.2 °F 35.0 °F 35.6 °F 87% 30.36 in 6.2 mi NNE 5.8 mph - N/A   Partly Cloudy
7:50 AM 39.2 °F 34.2 °F 33.8 °F 81% 30.39 in 6.2 mi NE 6.9 mph - N/A   Partly Cloudy
8:20 AM 41.0 °F 36.4 °F 35.6 °F 81% 30.39 in 6.2 mi NE 6.9 mph - N/A   Partly Cloudy
8:50 AM 42.8 °F 38.0 °F 37.4 °F 81% 30.42 in 6.2 mi NE 8.1 mph - N/A   Partly Cloudy
9:20 AM 46.4 °F 41.5 °F 39.2 °F 76% 30.42 in 6.2 mi ENE 10.4 mph - N/A   Partly Cloudy
9:50 AM 46.4 °F 40.4 °F 37.4 °F 71% 30.42 in 6.2 mi ENE 13.8 mph - N/A   Partly Cloudy
10:20 AM 48.2 °F - 39.2 °F 71% 30.42 in 6.2 mi East 15.0 mph - N/A   Partly Cloudy
10:50 AM 48.2 °F - 37.4 °F 66% 30.45 in 6.2 mi East 12.7 mph - N/A   Partly Cloudy
11:20 AM 50.0 °F - 37.4 °F 62% 30.45 in 6.2 mi East 13.8 mph - N/A   Partly Cloudy
11:50 AM 50.0 °F - 37.4 °F 62% 30.45 in 6.2 mi ESE 13.8 mph - N/A   Partly Cloudy
12:20 PM 50.0 °F - 37.4 °F 62% 30.45 in 6.2 mi ESE 13.8 mph - N/A   Partly Cloudy
12:50 PM 51.8 °F - 39.2 °F 62% 30.45 in 6.2 mi ESE 16.1 mph - N/A   Scattered Clouds
1:20 PM 51.8 °F - 39.2 °F 62% 30.45 in 6.2 mi ESE 16.1 mph - N/A   Scattered Clouds
1:50 PM 51.8 °F - 39.2 °F 62% 30.42 in 6.2 mi ESE 16.1 mph - N/A   Scattered Clouds
2:20 PM 51.8 °F - 39.2 °F 62% 30.42 in 6.2 mi ESE 16.1 mph - N/A   Scattered Clouds
2:50 PM 51.8 °F - 37.4 °F 58% 30.42 in 6.2 mi SE 12.7 mph - N/A   Scattered Clouds
3:20 PM 51.8 °F - 37.4 °F 58% 30.42 in 6.2 mi SE 12.7 mph - N/A   Scattered Clouds
3:50 PM 51.8 °F - 37.4 °F 58% 30.42 in 6.2 mi SE 11.5 mph - N/A   Scattered Clouds
4:20 PM 51.8 °F - 37.4 °F 58% 30.42 in 6.2 mi SE 11.5 mph - N/A   Scattered Clouds
4:50 PM 51.8 °F - 35.6 °F 54% 30.42 in 6.2 mi ESE 8.1 mph - N/A   Scattered Clouds
5:20 PM 51.8 °F - 35.6 °F 54% 30.42 in 6.2 mi ESE 8.1 mph - N/A   Scattered Clouds
5:50 PM 50.0 °F - 37.4 °F 62% 30.45 in 6.2 mi East 4.6 mph - N/A   Scattered Clouds
6:20 PM 48.2 °F - 37.4 °F 66% 30.42 in 6.2 mi East 4.6 mph - N/A   Mostly Cloudy
6:50 PM 48.2 °F - 37.4 °F 66% 30.45 in 6.2 mi East 5.8 mph - N/A   Mostly Cloudy
7:20 PM 48.2 °F - 37.4 °F 66% 30.45 in 6.2 mi East 5.8 mph - N/A   Mostly Cloudy
7:50 PM 46.4 °F 44.3 °F 37.4 °F 71% 30.45 in 6.2 mi NNE 4.6 mph - N/A   Mostly Cloudy
8:20 PM 46.4 °F 44.3 °F 37.4 °F 71% 30.45 in 6.2 mi NNE 4.6 mph - N/A   Mostly Cloudy
8:50 PM 44.6 °F 42.2 °F 37.4 °F 76% 30.45 in 6.2 mi NNE 4.6 mph - N/A   Mostly Cloudy
9:20 PM 44.6 °F 42.2 °F 37.4 °F 76% 30.48 in 6.2 mi NNE 4.6 mph - N/A   Mostly Cloudy
9:50 PM 42.8 °F 39.3 °F 35.6 °F 76% 30.48 in 6.2 mi NNE 5.8 mph - N/A   Scattered Clouds
10:20 PM 42.8 °F 39.3 °F 35.6 °F 76% 30.48 in 6.2 mi NNE 5.8 mph - N/A   Scattered Clouds
10:50 PM 42.8 °F 39.3 °F 35.6 °F 76% 30.48 in 6.2 mi NNE 5.8 mph - N/A   Scattered Clouds
11:50 PM 42.8 °F 39.3 °F 35.6 °F 76% 30.48 in 6.2 mi NNE 5.8 mph - N/A   Scattered Clouds